Time,TemperatureF,DewpointF,PressureIn,WindDirection,WindDirectionDegrees,WindSpeedMPH,WindSpeedGustMPH,Humidity,HourlyPrecipIn,Conditions,Clouds,dailyrainin,SolarRadiationWatts/m^2,SoftwareType,DateUTC
2013-02-09 00:00:00,15.9,13.7,29.57,NNE,17,23.0,31.0,91,0.00,,OVC021,0.00,0.00,VWS V14.01,2013-02-09 05:00:00,
2013-02-09 00:05:00,15.9,13.7,29.57,North,355,16.0,24.0,91,0.00,,OVC021,0.00,0.00,VWS V14.01,2013-02-09 05:05:00,
2013-02-09 00:10:00,15.9,13.7,29.57,NNE,19,7.0,24.0,91,0.00,,OVC021,0.00,0.00,VWS V14.01,2013-02-09 05:10:00,
2013-02-09 00:15:00,15.8,13.6,29.56,NNE,17,10.0,27.0,91,0.00,,OVC021,0.00,0.00,VWS V14.01,2013-02-09 05:15:00,
2013-02-09 00:20:00,15.8,13.4,29.57,NNE,29,16.0,26.0,90,0.00,,OVC021,0.00,0.00,VWS V14.01,2013-02-09 05:20:00,
2013-02-09 00:25:00,15.7,13.3,29.57,NNE,14,25.0,25.0,90,0.00,,OVC021,0.00,0.00,VWS V14.01,2013-02-09 05:25:00,
2013-02-09 00:30:00,15.6,13.2,29.55,NNE,29,18.0,25.0,90,0.00,,OVC021,0.00,0.00,VWS V14.01,2013-02-09 05:30:00,
2013-02-09 00:35:00,15.6,13.2,29.55,NE,49,18.0,31.0,90,0.00,,OVC021,0.00,0.00,VWS V14.01,2013-02-09 05:35:00,
2013-02-09 00:40:00,15.5,13.1,29.54,North,11,13.0,32.0,90,0.00,,OVC021,0.00,0.00,VWS V14.01,2013-02-09 05:40:00,
2013-02-09 00:45:00,15.4,13.0,29.54,NE,34,25.0,26.0,90,0.00,,OVC021,0.00,0.00,VWS V14.01,2013-02-09 05:45:00,
2013-02-09 00:50:00,15.3,12.9,29.54,NE,36,19.0,28.0,90,0.00,,OVC021,0.00,0.00,VWS V14.01,2013-02-09 05:50:00,
2013-02-09 00:55:00,15.3,12.9,29.55,NNE,29,17.0,30.0,90,0.00,,OVC021,0.00,0.00,VWS V14.01,2013-02-09 05:55:00,
2013-02-09 01:00:00,15.2,12.8,29.56,NNE,13,11.0,24.0,90,0.00,,OVC021,0.00,0.00,VWS V14.01,2013-02-09 06:00:00,
2013-02-09 01:05:00,15.1,12.7,29.55,North,5,9.0,27.0,90,0.00,,OVC021,0.00,0.00,VWS V14.01,2013-02-09 06:05:00,
2013-02-09 01:10:00,15.0,12.6,29.54,NNE,12,10.0,35.0,90,0.00,,OVC021,0.00,0.00,VWS V14.01,2013-02-09 06:10:00,
2013-02-09 01:15:00,14.9,12.5,29.54,NNE,23,10.0,24.0,90,0.00,,OVC021,0.00,0.00,VWS V14.01,2013-02-09 06:15:00,
2013-02-09 01:20:00,14.9,12.5,29.55,North,11,13.0,29.0,90,0.00,,OVC021,0.00,0.00,VWS V14.01,2013-02-09 06:20:00,
2013-02-09 01:25:00,14.8,12.4,29.56,NNW,347,15.0,26.0,90,0.00,,OVC021,0.00,0.00,VWS V14.01,2013-02-09 06:25:00,
2013-02-09 01:30:00,14.8,12.4,29.55,NNE,17,12.0,30.0,90,0.00,,OVC021,0.00,0.00,VWS V14.01,2013-02-09 06:30:00,
2013-02-09 01:35:00,14.8,12.4,29.55,NNE,13,9.0,28.0,90,0.00,,OVC021,0.00,0.00,VWS V14.01,2013-02-09 06:35:00,
2013-02-09 01:40:00,14.7,12.3,29.55,North,5,4.0,26.0,90,0.00,,OVC021,0.00,0.00,VWS V14.01,2013-02-09 06:40:00,
2013-02-09 01:45:00,14.7,12.3,29.56,North,355,9.0,17.0,90,0.00,,OVC021,0.00,0.00,VWS V14.01,2013-02-09 06:45:00,
2013-02-09 01:50:00,14.6,12.2,29.56,North,350,19.0,28.0,90,0.00,,OVC021,0.00,0.00,VWS V14.01,2013-02-09 06:50:00,
2013-02-09 01:55:00,14.6,12.2,29.56,North,350,17.0,38.0,90,0.00,,OVC021,0.00,0.00,VWS V14.01,2013-02-09 06:55:00,
2013-02-09 02:00:00,14.6,12.2,29.55,NNW,343,7.0,24.0,90,0.00,,OVC021,0.00,0.00,VWS V14.01,2013-02-09 07:00:00,
2013-02-09 02:05:00,14.6,12.2,29.55,North,5,20.0,25.0,90,0.00,,OVC021,0.00,0.00,VWS V14.01,2013-02-09 07:05:00,
2013-02-09 02:10:00,14.7,12.3,29.55,NW,326,16.0,24.0,90,0.00,,OVC021,0.00,0.00,VWS V14.01,2013-02-09 07:10:00,
2013-02-09 02:15:00,14.7,12.3,29.55,North,360,9.0,29.0,90,0.00,,OVC021,0.00,0.00,VWS V14.01,2013-02-09 07:15:00,
2013-02-09 02:20:00,14.7,12.3,29.55,NW,325,8.0,25.0,90,0.00,,OVC021,0.00,0.00,VWS V14.01,2013-02-09 07:20:00,
2013-02-09 02:25:00,14.8,12.4,29.55,North,5,18.0,27.0,90,0.00,,OVC021,0.00,0.00,VWS V14.01,2013-02-09 07:25:00,
2013-02-09 02:30:00,14.8,12.4,29.55,West,274,5.0,27.0,90,0.00,,OVC021,0.00,0.00,VWS V14.01,2013-02-09 07:30:00,
2013-02-09 02:35:00,14.8,12.4,29.55,NNE,14,6.0,22.0,90,0.00,,OVC021,0.00,0.00,VWS V14.01,2013-02-09 07:35:00,
2013-02-09 02:40:00,14.8,12.4,29.55,North,9,9.0,26.0,90,0.00,,OVC021,0.00,0.00,VWS V14.01,2013-02-09 07:40:00,
2013-02-09 02:45:00,14.9,12.5,29.54,North,360,5.0,21.0,90,0.00,,OVC021,0.00,0.00,VWS V14.01,2013-02-09 07:45:00,
2013-02-09 02:50:00,14.9,12.5,29.55,NNW,346,13.0,23.0,90,0.00,,OVC021,0.00,0.00,VWS V14.01,2013-02-09 07:50:00,
2013-02-09 02:55:00,15.0,12.6,29.55,NNE,26,16.0,20.0,90,0.00,,OVC021,0.00,0.00,VWS V14.01,2013-02-09 07:55:00,
2013-02-09 03:00:00,15.1,12.7,29.55,NNE,13,15.0,22.0,90,0.00,,OVC021,0.00,0.00,VWS V14.01,2013-02-09 08:00:00,
2013-02-09 03:05:00,15.2,12.8,29.56,North,360,17.0,19.0,90,0.00,,OVC021,0.00,0.00,VWS V14.01,2013-02-09 08:05:00,
2013-02-09 03:10:00,15.3,12.9,29.56,North,355,15.0,18.0,90,0.00,,OVC021,0.00,0.00,VWS V14.01,2013-02-09 08:10:00,
2013-02-09 03:15:00,15.4,13.0,29.56,North,5,15.0,21.0,90,0.00,,OVC021,0.00,0.00,VWS V14.01,2013-02-09 08:15:00,
2013-02-09 03:20:00,15.4,13.0,29.56,NE,34,12.0,23.0,90,0.00,,OVC021,0.00,0.00,VWS V14.01,2013-02-09 08:20:00,
2013-02-09 03:25:00,15.5,13.1,29.57,NNE,15,9.0,26.0,90,0.00,,OVC021,0.00,0.00,VWS V14.01,2013-02-09 08:25:00,
2013-02-09 03:30:00,15.6,13.2,29.57,NNE,13,16.0,23.0,90,0.00,,OVC021,0.00,0.00,VWS V14.01,2013-02-09 08:30:00,
2013-02-09 03:35:00,15.6,13.2,29.56,North,360,6.0,20.0,90,0.00,,OVC021,0.00,0.00,VWS V14.01,2013-02-09 08:35:00,
2013-02-09 03:40:00,15.6,13.2,29.57,NE,36,10.0,19.0,90,0.00,,OVC021,0.00,0.00,VWS V14.01,2013-02-09 08:40:00,
2013-02-09 03:45:00,15.7,13.3,29.57,NNE,28,11.0,16.0,90,0.00,,OVC021,0.00,0.00,VWS V14.01,2013-02-09 08:45:00,
2013-02-09 03:50:00,15.8,13.4,29.57,North,355,8.0,22.0,90,0.00,,OVC021,0.00,0.00,VWS V14.01,2013-02-09 08:50:00,
2013-02-09 03:55:00,15.9,13.7,29.56,North,355,11.0,17.0,91,0.00,,OVC021,0.00,0.00,VWS V14.01,2013-02-09 08:55:00,
2013-02-09 04:00:00,16.0,13.8,29.56,NNW,335,5.0,16.0,91,0.00,,OVC021,0.00,0.00,VWS V14.01,2013-02-09 09:00:00,
2013-02-09 04:05:00,16.0,13.8,29.57,North,360,9.0,15.0,91,0.00,,OVC021,0.00,0.00,VWS V14.01,2013-02-09 09:05:00,
2013-02-09 04:10:00,16.1,13.9,29.57,North,360,10.0,14.0,91,0.00,,OVC021,0.00,0.00,VWS V14.01,2013-02-09 09:10:00,
2013-02-09 04:15:00,15.9,13.7,29.57,NW,313,11.0,19.0,91,0.00,,OVC021,0.00,0.00,VWS V14.01,2013-02-09 09:15:00,
2013-02-09 04:20:00,15.7,13.3,29.58,North,355,9.0,21.0,90,0.00,,OVC021,0.00,0.00,VWS V14.01,2013-02-09 09:20:00,
2013-02-09 04:25:00,15.7,13.3,29.57,North,355,8.0,18.0,90,0.00,,OVC021,0.00,0.00,VWS V14.01,2013-02-09 09:25:00,
2013-02-09 04:30:00,15.6,13.2,29.57,NNW,346,8.0,18.0,90,0.00,,OVC021,0.00,0.00,VWS V14.01,2013-02-09 09:30:00,
2013-02-09 04:35:00,15.6,13.2,29.57,NNW,337,9.0,19.0,90,0.00,,OVC021,0.00,0.00,VWS V14.01,2013-02-09 09:35:00,
2013-02-09 04:40:00,15.6,13.2,29.57,NNE,15,9.0,19.0,90,0.00,,OVC021,0.00,0.00,VWS V14.01,2013-02-09 09:40:00,
2013-02-09 04:45:00,15.6,13.2,29.58,NW,318,8.0,15.0,90,0.00,,OVC021,0.00,0.00,VWS V14.01,2013-02-09 09:45:00,
2013-02-09 04:50:00,15.6,13.2,29.57,North,355,4.0,16.0,90,0.00,,OVC021,0.00,0.00,VWS V14.01,2013-02-09 09:50:00,
2013-02-09 04:55:00,15.6,13.2,29.57,NNW,342,8.0,16.0,90,0.00,,OVC021,0.00,0.00,VWS V14.01,2013-02-09 09:55:00,
2013-02-09 05:00:00,15.7,13.6,29.57,North,355,5.0,22.0,91,0.00,,OVC021,0.00,0.00,VWS V14.01,2013-02-09 10:00:00,
2013-02-09 05:05:00,15.8,13.6,29.57,North,5,7.0,19.0,91,0.00,,OVC021,0.00,0.00,VWS V14.01,2013-02-09 10:05:00,
2013-02-09 05:10:00,15.8,13.6,29.56,NNE,13,8.0,18.0,91,0.00,,OVC021,0.00,0.00,VWS V14.01,2013-02-09 10:10:00,
2013-02-09 05:15:00,15.9,13.7,29.56,NW,323,17.0,20.0,91,0.00,,OVC021,0.00,0.00,VWS V14.01,2013-02-09 10:15:00,
2013-02-09 05:20:00,15.9,13.7,29.56,NW,318,2.0,22.0,91,0.00,,OVC021,0.00,0.00,VWS V14.01,2013-02-09 10:20:00,
2013-02-09 05:25:00,16.1,13.9,29.57,NE,56,13.0,25.0,91,0.00,,OVC021,0.00,0.00,VWS V14.01,2013-02-09 10:25:00,
2013-02-09 05:30:00,16.1,13.9,29.57,NNE,26,20.0,20.0,91,0.00,,OVC021,0.00,0.00,VWS V14.01,2013-02-09 10:30:00,
2013-02-09 05:35:00,16.3,14.1,29.57,NE,55,8.0,23.0,91,0.00,,OVC021,0.00,0.00,VWS V14.01,2013-02-09 10:35:00,
2013-02-09 05:40:00,16.3,14.1,29.57,NNW,329,4.0,20.0,91,0.00,,OVC021,0.00,0.00,VWS V14.01,2013-02-09 10:40:00,
2013-02-09 05:45:00,16.5,14.3,29.58,NW,313,14.0,24.0,91,0.00,,OVC021,0.00,0.00,VWS V14.01,2013-02-09 10:45:00,
2013-02-09 05:50:00,16.6,14.4,29.57,North,350,8.0,24.0,91,0.00,,OVC021,0.00,0.00,VWS V14.01,2013-02-09 10:50:00,
2013-02-09 05:55:00,16.8,14.6,29.58,NNW,346,7.0,21.0,91,0.00,,OVC021,0.00,0.00,VWS V14.01,2013-02-09 10:55:00,
2013-02-09 06:00:00,16.9,14.7,29.58,NNW,327,10.0,15.0,91,0.00,,OVC021,0.00,0.00,VWS V14.01,2013-02-09 11:00:00,
2013-02-09 06:05:00,17.2,15.0,29.58,NNW,341,14.0,17.0,91,0.00,,OVC021,0.00,0.00,VWS V14.01,2013-02-09 11:05:00,
2013-02-09 06:10:00,17.6,15.4,29.59,NNW,336,13.0,20.0,91,0.00,,OVC021,0.00,0.00,VWS V14.01,2013-02-09 11:10:00,
2013-02-09 06:15:00,17.8,15.6,29.59,NW,324,3.0,17.0,91,0.00,,OVC021,0.00,0.00,VWS V14.01,2013-02-09 11:15:00,
2013-02-09 06:20:00,18.0,15.8,29.59,NNE,32,4.0,20.0,91,0.00,,OVC021,0.00,0.00,VWS V14.01,2013-02-09 11:20:00,
2013-02-09 06:25:00,18.2,16.0,29.59,NW,320,11.0,17.0,91,0.00,,OVC021,0.00,0.00,VWS V14.01,2013-02-09 11:25:00,
2013-02-09 06:30:00,18.4,16.2,29.60,North,355,7.0,22.0,91,0.00,,OVC021,0.00,0.00,VWS V14.01,2013-02-09 11:30:00,
2013-02-09 06:35:00,18.4,16.2,29.60,WNW,299,8.0,13.0,91,0.00,,OVC021,0.00,0.00,VWS V14.01,2013-02-09 11:35:00,
2013-02-09 06:40:00,18.5,16.3,29.60,NNW,340,3.0,20.0,91,0.00,,OVC021,0.00,0.00,VWS V14.01,2013-02-09 11:40:00,
2013-02-09 06:45:00,18.6,16.4,29.61,NW,309,4.0,18.0,91,0.00,,OVC021,0.00,0.00,VWS V14.01,2013-02-09 11:45:00,
2013-02-09 06:50:00,18.6,16.4,29.60,North,355,9.0,18.0,91,0.00,,OVC021,0.00,0.00,VWS V14.01,2013-02-09 11:50:00,
2013-02-09 06:55:00,18.7,16.5,29.61,North,5,15.0,19.0,91,0.00,,OVC021,0.00,0.00,VWS V14.01,2013-02-09 11:55:00,
2013-02-09 07:00:00,18.7,16.5,29.61,North,5,7.0,15.0,91,0.00,,OVC021,0.00,0.00,VWS V14.01,2013-02-09 12:00:00,
2013-02-09 07:05:00,18.6,16.4,29.61,NNW,336,5.0,12.0,91,0.00,,OVC021,0.00,0.00,VWS V14.01,2013-02-09 12:05:00,
2013-02-09 07:10:00,18.5,16.3,29.61,NNW,330,9.0,18.0,91,0.00,,OVC021,0.00,0.00,VWS V14.01,2013-02-09 12:10:00,
2013-02-09 07:15:00,18.5,16.3,29.61,NNW,334,8.0,16.0,91,0.00,,OVC021,0.00,5.00,VWS V14.01,2013-02-09 12:15:00,
2013-02-09 07:20:00,18.4,16.2,29.62,NW,315,9.0,14.0,91,0.00,,OVC021,0.00,7.00,VWS V14.01,2013-02-09 12:20:00,
2013-02-09 07:25:00,18.4,16.2,29.62,North,350,4.0,15.0,91,0.00,,OVC021,0.00,9.00,VWS V14.01,2013-02-09 12:25:00,
2013-02-09 07:30:00,18.3,16.1,29.62,North,355,11.0,14.0,91,0.00,,OVC021,0.00,14.00,VWS V14.01,2013-02-09 12:30:00,
2013-02-09 07:35:00,18.3,16.1,29.62,NW,324,4.0,17.0,91,0.00,,OVC021,0.00,19.00,VWS V14.01,2013-02-09 12:35:00,
2013-02-09 07:40:00,18.3,16.1,29.63,NNW,329,10.0,18.0,91,0.00,,OVC021,0.00,25.00,VWS V14.01,2013-02-09 12:40:00,
2013-02-09 07:45:00,18.4,16.2,29.63,North,355,7.0,14.0,91,0.00,,OVC021,0.00,30.00,VWS V14.01,2013-02-09 12:45:00,
2013-02-09 07:50:00,18.4,16.2,29.63,NW,324,6.0,15.0,91,0.00,,OVC021,0.00,32.00,VWS V14.01,2013-02-09 12:50:00,
2013-02-09 07:55:00,18.4,16.2,29.63,NNE,30,6.0,14.0,91,0.00,,OVC021,0.00,33.00,VWS V14.01,2013-02-09 12:55:00,
2013-02-09 08:00:00,18.3,16.1,29.63,NNE,17,13.0,20.0,91,0.00,,OVC021,0.00,37.00,VWS V14.01,2013-02-09 13:00:00,
2013-02-09 08:05:00,18.3,16.1,29.64,NNW,329,11.0,15.0,91,0.00,,OVC021,0.00,39.00,VWS V14.01,2013-02-09 13:05:00,
2013-02-09 08:10:00,18.2,16.0,29.64,NW,306,6.0,16.0,91,0.00,,OVC021,0.00,39.00,VWS V14.01,2013-02-09 13:10:00,
2013-02-09 08:15:00,18.1,15.9,29.64,NNW,341,18.0,26.0,91,0.00,,OVC021,0.00,42.00,VWS V14.01,2013-02-09 13:15:00,
2013-02-09 08:20:00,18.0,15.6,29.65,NNW,347,17.0,23.0,90,0.00,,OVC021,0.00,44.00,VWS V14.01,2013-02-09 13:20:00,
2013-02-09 08:25:00,17.9,15.7,29.65,North,360,6.0,17.0,91,0.00,,OVC021,0.00,49.00,VWS V14.01,2013-02-09 13:25:00,
2013-02-09 08:30:00,17.9,15.5,29.65,NNW,345,7.0,24.0,90,0.00,,OVC021,0.00,54.00,VWS V14.01,2013-02-09 13:30:00,
2013-02-09 08:35:00,17.8,15.4,29.65,NW,313,13.0,25.0,90,0.00,,OVC021,0.00,60.00,VWS V14.01,2013-02-09 13:35:00,
2013-02-09 08:40:00,17.8,15.4,29.65,North,360,8.0,18.0,90,0.00,,OVC021,0.00,56.00,VWS V14.01,2013-02-09 13:40:00,
2013-02-09 08:45:00,17.7,15.3,29.66,North,360,11.0,15.0,90,0.00,,OVC021,0.00,62.00,VWS V14.01,2013-02-09 13:45:00,
2013-02-09 08:50:00,17.6,15.2,29.66,NW,317,10.0,18.0,90,0.00,,OVC021,0.00,69.00,VWS V14.01,2013-02-09 13:50:00,
2013-02-09 08:55:00,17.5,15.1,29.66,North,350,15.0,19.0,90,0.00,,OVC021,0.00,76.00,VWS V14.01,2013-02-09 13:55:00,
2013-02-09 09:00:00,17.3,14.9,29.67,NNW,335,8.0,22.0,90,0.00,,OVC021,0.00,74.00,VWS V14.01,2013-02-09 14:00:00,
2013-02-09 09:05:00,17.3,14.9,29.67,North,355,8.0,20.0,90,0.00,,OVC021,0.00,77.00,VWS V14.01,2013-02-09 14:05:00,
2013-02-09 09:10:00,17.1,14.7,29.67,NNW,346,9.0,16.0,90,0.00,,OVC021,0.00,86.00,VWS V14.01,2013-02-09 14:10:00,
2013-02-09 09:15:00,16.7,14.3,29.67,NW,311,11.0,14.0,90,0.00,,OVC021,0.00,86.00,VWS V14.01,2013-02-09 14:15:00,
2013-02-09 09:20:00,16.3,13.6,29.67,NNW,334,12.0,23.0,89,0.00,,OVC021,0.00,88.00,VWS V14.01,2013-02-09 14:20:00,
2013-02-09 09:25:00,16.2,13.8,29.68,NNW,331,8.0,19.0,90,0.00,,OVC021,0.00,84.00,VWS V14.01,2013-02-09 14:25:00,
2013-02-09 09:30:00,16.1,13.7,29.68,NW,307,7.0,20.0,90,0.00,,OVC021,0.00,93.00,VWS V14.01,2013-02-09 14:30:00,
2013-02-09 09:35:00,16.0,13.6,29.68,NW,324,10.0,17.0,90,0.00,,OVC021,0.00,98.00,VWS V14.01,2013-02-09 14:35:00,
2013-02-09 09:40:00,16.0,13.6,29.69,NNW,343,11.0,20.0,90,0.00,,OVC021,0.00,102.00,VWS V14.01,2013-02-09 14:40:00,
2013-02-09 09:45:00,16.0,13.6,29.69,NNW,331,8.0,17.0,90,0.00,,OVC021,0.00,109.00,VWS V14.01,2013-02-09 14:45:00,
2013-02-09 09:50:00,16.0,13.6,29.69,NW,319,9.0,17.0,90,0.00,,OVC021,0.00,120.00,VWS V14.01,2013-02-09 14:50:00,
2013-02-09 09:55:00,15.9,13.2,29.70,NW,321,14.0,23.0,89,0.00,,OVC021,0.00,125.00,VWS V14.01,2013-02-09 14:55:00,
2013-02-09 10:00:00,15.9,13.5,29.70,NNW,341,16.0,23.0,90,0.00,,OVC021,0.00,132.00,VWS V14.01,2013-02-09 15:00:00,
2013-02-09 10:05:00,15.9,13.5,29.70,NW,318,6.0,26.0,90,0.00,,OVC021,0.00,139.00,VWS V14.01,2013-02-09 15:05:00,
2013-02-09 10:10:00,15.9,13.2,29.71,North,349,13.0,22.0,89,0.00,,OVC021,0.00,156.00,VWS V14.01,2013-02-09 15:10:00,
2013-02-09 10:15:00,15.9,13.2,29.71,NW,310,11.0,19.0,89,0.00,,OVC021,0.00,165.00,VWS V14.01,2013-02-09 15:15:00,
2013-02-09 10:20:00,15.9,13.2,29.71,North,9,7.0,19.0,89,0.00,,OVC021,0.00,176.00,VWS V14.01,2013-02-09 15:20:00,
2013-02-09 10:25:00,16.0,13.3,29.71,WNW,298,9.0,16.0,89,0.00,,OVC021,0.00,179.00,VWS V14.01,2013-02-09 15:25:00,
2013-02-09 10:30:00,15.9,13.0,29.71,NW,317,11.0,23.0,88,0.00,,OVC021,0.00,186.00,VWS V14.01,2013-02-09 15:30:00,
2013-02-09 10:35:00,15.9,13.2,29.72,NNW,329,10.0,20.0,89,0.00,,OVC021,0.00,199.00,VWS V14.01,2013-02-09 15:35:00,
2013-02-09 10:40:00,16.0,13.3,29.72,NW,307,6.0,22.0,89,0.00,,OVC021,0.00,214.00,VWS V14.01,2013-02-09 15:40:00,
2013-02-09 10:45:00,16.2,13.3,29.72,NNW,338,20.0,21.0,88,0.00,,OVC021,0.00,223.00,VWS V14.01,2013-02-09 15:45:00,
2013-02-09 10:50:00,16.3,13.6,29.72,NW,313,12.0,20.0,89,0.00,,OVC021,0.00,236.00,VWS V14.01,2013-02-09 15:50:00,
2013-02-09 10:55:00,16.3,13.4,29.73,NNW,330,24.0,24.0,88,0.00,,OVC021,0.00,246.00,VWS V14.01,2013-02-09 15:55:00,
2013-02-09 11:00:00,16.3,13.1,29.72,NW,320,14.0,24.0,87,0.00,,OVC021,0.00,269.00,VWS V14.01,2013-02-09 16:00:00,
2013-02-09 11:05:00,16.5,13.3,29.73,NW,313,12.0,25.0,87,0.00,,OVC021,0.00,278.00,VWS V14.01,2013-02-09 16:05:00,
2013-02-09 11:10:00,16.7,13.8,29.73,NE,34,7.0,22.0,88,0.00,,OVC021,0.00,285.00,VWS V14.01,2013-02-09 16:10:00,
2013-02-09 11:15:00,16.8,13.6,29.73,NNW,342,9.0,20.0,87,0.00,,OVC021,0.00,299.00,VWS V14.01,2013-02-09 16:15:00,
2013-02-09 11:20:00,16.8,13.6,29.72,NW,313,12.0,20.0,87,0.00,,OVC021,0.00,325.00,VWS V14.01,2013-02-09 16:20:00,
2013-02-09 11:25:00,17.0,14.1,29.73,NNW,348,12.0,20.0,88,0.00,,OVC021,0.00,341.00,VWS V14.01,2013-02-09 16:25:00,
2013-02-09 11:30:00,17.2,14.0,29.73,NW,317,11.0,21.0,87,0.00,,OVC021,0.00,373.00,VWS V14.01,2013-02-09 16:30:00,
2013-02-09 11:35:00,17.2,13.5,29.74,NNW,338,10.0,31.0,85,0.00,,OVC021,0.00,397.00,VWS V14.01,2013-02-09 16:35:00,
2013-02-09 11:40:00,17.4,13.9,29.73,NW,319,6.0,29.0,86,0.00,,OVC021,0.00,373.00,VWS V14.01,2013-02-09 16:40:00,
2013-02-09 11:45:00,17.6,14.1,29.73,NNW,330,9.0,18.0,86,0.00,,OVC021,0.00,369.00,VWS V14.01,2013-02-09 16:45:00,
2013-02-09 11:50:00,17.9,14.4,29.74,NNW,340,6.0,21.0,86,0.00,,OVC021,0.00,392.00,VWS V14.01,2013-02-09 16:50:00,
2013-02-09 11:55:00,18.0,14.5,29.74,NNW,327,16.0,21.0,86,0.00,,OVC021,0.00,330.00,VWS V14.01,2013-02-09 16:55:00,
2013-02-09 12:00:00,17.9,14.4,29.73,NW,306,8.0,21.0,86,0.00,,OVC021,0.00,403.00,VWS V14.01,2013-02-09 17:00:00,
2013-02-09 12:05:00,18.2,14.5,29.74,NNW,330,18.0,23.0,85,0.00,,OVC021,0.00,408.00,VWS V14.01,2013-02-09 17:05:00,
2013-02-09 12:10:00,18.2,14.2,29.74,NNE,22,11.0,29.0,84,0.00,,OVC021,0.00,410.00,VWS V14.01,2013-02-09 17:10:00,
2013-02-09 12:15:00,18.3,14.3,29.74,NNW,347,8.0,20.0,84,0.00,,OVC021,0.00,397.00,VWS V14.01,2013-02-09 17:15:00,
2013-02-09 12:20:00,18.6,14.6,29.74,NNW,346,19.0,22.0,84,0.00,,OVC021,0.00,359.00,VWS V14.01,2013-02-09 17:20:00,
2013-02-09 12:25:00,18.5,14.2,29.75,NW,306,12.0,20.0,83,0.00,,OVC021,0.00,329.00,VWS V14.01,2013-02-09 17:25:00,
2013-02-09 12:30:00,18.6,14.3,29.75,West,279,10.0,25.0,83,0.00,,OVC021,0.00,362.00,VWS V14.01,2013-02-09 17:30:00,
2013-02-09 12:35:00,18.8,14.2,29.75,NW,316,10.0,20.0,82,0.00,,OVC021,0.00,397.00,VWS V14.01,2013-02-09 17:35:00,
2013-02-09 12:40:00,18.8,13.9,29.75,NNW,333,10.0,23.0,81,0.00,,OVC021,0.00,313.00,VWS V14.01,2013-02-09 17:40:00,
2013-02-09 12:45:00,18.5,13.4,29.75,NNW,331,8.0,24.0,80,0.00,,OVC021,0.00,301.00,VWS V14.01,2013-02-09 17:45:00,
2013-02-09 12:50:00,18.5,13.4,29.76,NW,312,11.0,23.0,80,0.00,,OVC021,0.00,257.00,VWS V14.01,2013-02-09 17:50:00,
2013-02-09 12:55:00,18.5,13.4,29.76,NNW,330,6.0,22.0,80,0.00,,OVC021,0.00,251.00,VWS V14.01,2013-02-09 17:55:00,
2013-02-09 13:00:00,18.5,12.5,29.76,WNW,303,15.0,23.0,77,0.00,,OVC021,0.00,257.00,VWS V14.01,2013-02-09 18:00:00,
2013-02-09 13:05:00,18.5,12.8,29.77,NNW,337,7.0,23.0,78,0.00,,OVC021,0.00,248.00,VWS V14.01,2013-02-09 18:05:00,
2013-02-09 13:10:00,18.6,12.0,29.77,NNW,329,9.0,23.0,75,0.00,,OVC021,0.00,251.00,VWS V14.01,2013-02-09 18:10:00,
2013-02-09 13:15:00,18.9,12.6,29.78,NNW,329,19.0,21.0,76,0.00,,OVC021,0.00,260.00,VWS V14.01,2013-02-09 18:15:00,
2013-02-09 13:20:00,19.0,12.1,29.78,NW,323,15.0,27.0,74,0.00,,OVC021,0.00,265.00,VWS V14.01,2013-02-09 18:20:00,
2013-02-09 13:25:00,19.2,12.3,29.78,NNW,342,13.0,22.0,74,0.00,,OVC021,0.00,258.00,VWS V14.01,2013-02-09 18:25:00,
2013-02-09 13:30:00,19.4,13.1,29.78,WNW,290,4.0,17.0,76,0.00,,OVC021,0.00,255.00,VWS V14.01,2013-02-09 18:30:00,
2013-02-09 13:35:00,19.3,12.1,29.78,WNW,293,14.0,23.0,73,0.00,,OVC021,0.00,255.00,VWS V14.01,2013-02-09 18:35:00,
2013-02-09 13:40:00,19.2,11.7,29.79,NNW,328,13.0,24.0,72,0.00,,OVC021,0.00,257.00,VWS V14.01,2013-02-09 18:40:00,
2013-02-09 13:45:00,19.2,11.7,29.78,North,355,6.0,24.0,72,0.00,,OVC021,0.00,250.00,VWS V14.01,2013-02-09 18:45:00,
2013-02-09 13:50:00,19.2,11.7,29.79,NNW,327,16.0,22.0,72,0.00,,OVC021,0.00,243.00,VWS V14.01,2013-02-09 18:50:00,
2013-02-09 13:55:00,19.0,10.5,29.79,NNW,341,16.0,24.0,69,0.00,,OVC021,0.00,236.00,VWS V14.01,2013-02-09 18:55:00,
2013-02-09 14:00:00,19.1,11.3,29.80,NNW,328,16.0,22.0,71,0.00,,OVC021,0.00,234.00,VWS V14.01,2013-02-09 19:00:00,
2013-02-09 14:05:00,19.2,11.7,29.80,NW,311,11.0,20.0,72,0.00,,OVC021,0.00,230.00,VWS V14.01,2013-02-09 19:05:00,
2013-02-09 14:10:00,19.2,11.0,29.81,NNW,332,23.0,24.0,70,0.00,,OVC021,0.00,223.00,VWS V14.01,2013-02-09 19:10:00,
2013-02-09 14:15:00,19.1,10.6,29.81,WNW,293,12.0,25.0,69,0.00,,OVC021,0.00,216.00,VWS V14.01,2013-02-09 19:15:00,
2013-02-09 14:20:00,19.1,10.6,29.81,NW,310,9.0,27.0,69,0.00,,OVC021,0.00,204.00,VWS V14.01,2013-02-09 19:20:00,
2013-02-09 14:25:00,19.2,10.7,29.82,NW,321,12.0,20.0,69,0.00,,OVC021,0.00,185.00,VWS V14.01,2013-02-09 19:25:00,
2013-02-09 14:30:00,19.3,10.8,29.82,NNW,338,17.0,19.0,69,0.00,,OVC021,0.00,178.00,VWS V14.01,2013-02-09 19:30:00,
2013-02-09 14:35:00,19.3,10.5,29.83,NNW,345,16.0,22.0,68,0.00,,OVC021,0.00,171.00,VWS V14.01,2013-02-09 19:35:00,
2013-02-09 14:40:00,19.3,10.1,29.83,NW,322,10.0,23.0,67,0.00,,OVC021,0.00,163.00,VWS V14.01,2013-02-09 19:40:00,
2013-02-09 14:45:00,19.2,10.1,29.84,NNW,334,13.0,20.0,67,0.00,,OVC021,0.00,158.00,VWS V14.01,2013-02-09 19:45:00,
2013-02-09 14:50:00,19.2,9.7,29.84,NNW,343,9.0,25.0,66,0.00,,OVC021,0.00,165.00,VWS V14.01,2013-02-09 19:50:00,
2013-02-09 14:55:00,19.3,9.8,29.84,NNW,337,19.0,23.0,66,0.00,,OVC021,0.00,179.00,VWS V14.01,2013-02-09 19:55:00,
2013-02-09 15:00:00,19.4,9.9,29.84,NW,325,8.0,19.0,66,0.00,,OVC021,0.00,179.00,VWS V14.01,2013-02-09 20:00:00,
2013-02-09 15:05:00,19.6,9.4,29.85,NW,308,21.0,27.0,64,0.00,,OVC021,0.00,211.00,VWS V14.01,2013-02-09 20:05:00,
2013-02-09 15:10:00,19.8,9.6,29.85,NW,321,14.0,21.0,64,0.00,,OVC021,0.00,213.00,VWS V14.01,2013-02-09 20:10:00,
2013-02-09 15:15:00,20.0,10.5,29.86,NNW,338,9.0,19.0,66,0.00,,OVC021,0.00,227.00,VWS V14.01,2013-02-09 20:15:00,
2013-02-09 15:20:00,20.1,10.2,29.86,NW,314,7.0,19.0,65,0.00,,OVC021,0.00,229.00,VWS V14.01,2013-02-09 20:20:00,
2013-02-09 15:25:00,20.1,10.2,29.87,North,355,13.0,15.0,65,0.00,,OVC021,0.00,188.00,VWS V14.01,2013-02-09 20:25:00,
2013-02-09 15:30:00,19.8,10.3,29.87,NW,306,17.0,27.0,66,0.00,,OVC021,0.00,167.00,VWS V14.01,2013-02-09 20:30:00,
2013-02-09 15:35:00,19.7,10.5,29.88,North,355,11.0,19.0,67,0.00,,OVC021,0.00,142.00,VWS V14.01,2013-02-09 20:35:00,
2013-02-09 15:40:00,19.8,11.0,29.88,North,9,6.0,16.0,68,0.00,,OVC021,0.00,123.00,VWS V14.01,2013-02-09 20:40:00,
2013-02-09 15:45:00,19.8,10.6,29.89,NNW,334,11.0,22.0,67,0.00,,OVC021,0.00,111.00,VWS V14.01,2013-02-09 20:45:00,
2013-02-09 15:50:00,19.7,10.5,29.89,WNW,298,8.0,20.0,67,0.00,,OVC021,0.00,88.00,VWS V14.01,2013-02-09 20:50:00,
2013-02-09 15:55:00,19.7,10.2,29.89,NE,38,7.0,21.0,66,0.00,,OVC021,0.00,79.00,VWS V14.01,2013-02-09 20:55:00,
2013-02-09 16:00:00,19.7,10.2,29.90,WNW,301,13.0,13.0,66,0.00,,OVC021,0.00,76.00,VWS V14.01,2013-02-09 21:00:00,
2013-02-09 16:05:00,19.7,10.2,29.90,NNW,336,10.0,16.0,66,0.00,,OVC021,0.00,67.00,VWS V14.01,2013-02-09 21:05:00,
2013-02-09 16:10:00,19.7,10.2,29.90,NW,309,15.0,19.0,66,0.00,,OVC021,0.00,63.00,VWS V14.01,2013-02-09 21:10:00,
2013-02-09 16:15:00,19.7,9.9,29.91,NW,321,8.0,16.0,65,0.00,,OVC021,0.00,62.00,VWS V14.01,2013-02-09 21:15:00,
2013-02-09 16:20:00,19.8,9.9,29.91,NNE,17,8.0,15.0,65,0.00,,OVC021,0.00,62.00,VWS V14.01,2013-02-09 21:20:00,
2013-02-09 16:25:00,19.9,9.7,29.91,NNE,31,9.0,10.0,64,0.00,,OVC021,0.00,56.00,VWS V14.01,2013-02-09 21:25:00,
2013-02-09 16:30:00,20.0,9.4,29.92,NW,323,13.0,25.0,63,0.00,,OVC021,0.00,56.00,VWS V14.01,2013-02-09 21:30:00,
2013-02-09 16:35:00,20.1,9.5,29.92,NW,325,17.0,19.0,63,0.00,,OVC021,0.00,58.00,VWS V14.01,2013-02-09 21:35:00,
2013-02-09 16:40:00,20.3,9.4,29.92,NNE,24,15.0,21.0,62,0.00,,OVC021,0.00,47.00,VWS V14.01,2013-02-09 21:40:00,
2013-02-09 16:45:00,20.3,9.7,29.92,NNW,336,9.0,20.0,63,0.00,,OVC021,0.00,40.00,VWS V14.01,2013-02-09 21:45:00,
2013-02-09 16:50:00,20.3,9.4,29.92,NNW,327,12.0,23.0,62,0.00,,OVC021,0.00,37.00,VWS V14.01,2013-02-09 21:50:00,
2013-02-09 16:55:00,20.2,9.6,29.92,NNW,331,14.0,19.0,63,0.00,,OVC021,0.00,30.00,VWS V14.01,2013-02-09 21:55:00,
2013-02-09 17:00:00,20.2,9.3,29.92,NNW,346,6.0,17.0,62,0.00,,OVC021,0.00,25.00,VWS V14.01,2013-02-09 22:00:00,
2013-02-09 17:05:00,20.2,9.3,29.93,North,9,12.0,19.0,62,0.00,,OVC021,0.00,21.00,VWS V14.01,2013-02-09 22:05:00,
2013-02-09 17:10:00,20.2,9.3,29.93,NNW,339,12.0,21.0,62,0.00,,OVC021,0.00,16.00,VWS V14.01,2013-02-09 22:10:00,
2013-02-09 17:15:00,20.1,9.2,29.93,NNW,346,5.0,14.0,62,0.00,,OVC021,0.00,11.00,VWS V14.01,2013-02-09 22:15:00,
2013-02-09 17:20:00,20.1,9.2,29.94,North,350,7.0,15.0,62,0.00,,OVC021,0.00,5.00,VWS V14.01,2013-02-09 22:20:00,
2013-02-09 17:25:00,20.0,8.4,29.94,North,360,11.0,23.0,60,0.00,,OVC021,0.00,0.00,VWS V14.01,2013-02-09 22:25:00,
2013-02-09 17:30:00,20.0,8.0,29.95,NNW,336,10.0,20.0,59,0.00,,OVC021,0.00,0.00,VWS V14.01,2013-02-09 22:30:00,
2013-02-09 17:35:00,19.8,7.8,29.95,NNE,23,6.0,14.0,59,0.00,,OVC021,0.00,0.00,VWS V14.01,2013-02-09 22:35:00,
2013-02-09 17:40:00,19.9,7.9,29.95,NW,325,7.0,19.0,59,0.00,,OVC021,0.00,0.00,VWS V14.01,2013-02-09 22:40:00,
2013-02-09 17:45:00,19.9,7.9,29.96,NNW,336,24.0,24.0,59,0.00,,OVC021,0.00,0.00,VWS V14.01,2013-02-09 22:45:00,
2013-02-09 17:50:00,19.9,7.5,29.96,NW,315,11.0,26.0,58,0.00,,OVC021,0.00,0.00,VWS V14.01,2013-02-09 22:50:00,
2013-02-09 17:55:00,19.8,7.4,29.97,NNW,348,7.0,21.0,58,0.00,,OVC021,0.00,0.00,VWS V14.01,2013-02-09 22:55:00,
2013-02-09 18:00:00,19.7,7.7,29.97,NW,306,16.0,18.0,59,0.00,,OVC021,0.00,0.00,VWS V14.01,2013-02-09 23:00:00,
2013-02-09 18:05:00,19.8,7.4,29.97,NW,326,14.0,19.0,58,0.00,,OVC021,0.00,0.00,VWS V14.01,2013-02-09 23:05:00,
2013-02-09 18:10:00,19.7,7.3,29.97,North,5,16.0,23.0,58,0.00,,OVC021,0.00,0.00,VWS V14.01,2013-02-09 23:10:00,
2013-02-09 18:15:00,19.6,6.8,29.99,WNW,297,7.0,27.0,57,0.00,,OVC021,0.00,0.00,VWS V14.01,2013-02-09 23:15:00,
2013-02-09 18:20:00,19.4,7.1,29.99,NNW,333,12.0,21.0,58,0.00,,OVC021,0.00,0.00,VWS V14.01,2013-02-09 23:20:00,
2013-02-09 18:25:00,19.3,6.9,29.99,NNW,338,10.0,21.0,58,0.00,,OVC021,0.00,0.00,VWS V14.01,2013-02-09 23:25:00,
2013-02-09 18:30:00,19.2,6.5,29.99,NW,304,14.0,23.0,57,0.00,,OVC021,0.00,0.00,VWS V14.01,2013-02-09 23:30:00,
2013-02-09 18:35:00,19.1,6.8,30.00,NW,321,18.0,24.0,58,0.00,,OVC021,0.00,0.00,VWS V14.01,2013-02-09 23:35:00,
2013-02-09 18:40:00,19.0,6.3,30.00,NW,319,8.0,24.0,57,0.00,,OVC021,0.00,0.00,VWS V14.01,2013-02-09 23:40:00,
2013-02-09 18:45:00,18.8,6.5,30.00,NW,325,11.0,19.0,58,0.00,,OVC021,0.00,0.00,VWS V14.01,2013-02-09 23:45:00,
2013-02-09 18:50:00,18.8,6.1,30.00,NNW,331,12.0,21.0,57,0.00,,OVC021,0.00,0.00,VWS V14.01,2013-02-09 23:50:00,
2013-02-09 18:55:00,18.6,5.9,30.01,NNW,327,7.0,25.0,57,0.00,,OVC021,0.00,0.00,VWS V14.01,2013-02-09 23:55:00,
2013-02-09 19:00:00,18.5,5.8,30.01,WNW,286,6.0,20.0,57,0.00,,OVC021,0.00,0.00,VWS V14.01,2013-02-10 00:00:00,
2013-02-09 19:05:00,18.4,6.1,30.01,NNW,337,8.0,20.0,58,0.00,,OVC021,0.00,0.00,VWS V14.01,2013-02-10 00:05:00,
2013-02-09 19:10:00,18.3,6.0,30.01,NNW,329,12.0,26.0,58,0.00,,OVC021,0.00,0.00,VWS V14.01,2013-02-10 00:10:00,
2013-02-09 19:15:00,18.2,5.9,30.02,WNW,289,7.0,21.0,58,0.00,,OVC021,0.00,0.00,VWS V14.01,2013-02-10 00:15:00,
2013-02-09 19:20:00,18.1,5.4,30.02,NW,321,19.0,22.0,57,0.00,,OVC021,0.00,0.00,VWS V14.01,2013-02-10 00:20:00,
2013-02-09 19:25:00,18.1,5.4,30.02,NNW,327,7.0,23.0,57,0.00,,OVC021,0.00,0.00,VWS V14.01,2013-02-10 00:25:00,
2013-02-09 19:30:00,17.9,5.6,30.03,NNW,333,14.0,18.0,58,0.00,,OVC021,0.00,0.00,VWS V14.01,2013-02-10 00:30:00,
2013-02-09 19:35:00,17.9,5.2,30.03,NW,321,9.0,27.0,57,0.00,,OVC021,0.00,0.00,VWS V14.01,2013-02-10 00:35:00,
2013-02-09 19:40:00,17.7,5.4,30.02,NNW,334,14.0,19.0,58,0.00,,OVC021,0.00,0.00,VWS V14.01,2013-02-10 00:40:00,
2013-02-09 19:45:00,17.7,5.4,30.03,NW,321,11.0,17.0,58,0.00,,OVC021,0.00,0.00,VWS V14.01,2013-02-10 00:45:00,
2013-02-09 19:50:00,17.6,5.3,30.03,NW,310,10.0,19.0,58,0.00,,OVC021,0.00,0.00,VWS V14.01,2013-02-10 00:50:00,
2013-02-09 19:55:00,17.5,5.3,30.03,NW,304,9.0,14.0,58,0.00,,OVC021,0.00,0.00,VWS V14.01,2013-02-10 00:55:00,
2013-02-09 20:00:00,17.4,5.5,30.04,NW,320,8.0,17.0,59,0.00,,OVC021,0.00,0.00,VWS V14.01,2013-02-10 01:00:00,
2013-02-09 20:05:00,17.3,5.4,30.04,NW,323,14.0,22.0,59,0.00,,OVC021,0.00,0.00,VWS V14.01,2013-02-10 01:05:00,
2013-02-09 20:10:00,17.2,5.3,30.05,NW,316,7.0,20.0,59,0.00,,OVC021,0.00,0.00,VWS V14.01,2013-02-10 01:10:00,
2013-02-09 20:15:00,16.8,5.3,30.05,West,277,7.0,12.0,60,0.00,,OVC021,0.00,0.00,VWS V14.01,2013-02-10 01:15:00,
2013-02-09 20:20:00,16.8,5.3,30.05,NNW,338,15.0,16.0,60,0.00,,OVC021,0.00,0.00,VWS V14.01,2013-02-10 01:20:00,
2013-02-09 20:25:00,16.6,5.2,30.06,NW,310,9.0,17.0,60,0.00,,OVC021,0.00,0.00,VWS V14.01,2013-02-10 01:25:00,
2013-02-09 20:30:00,16.4,4.6,30.06,NW,310,6.0,22.0,59,0.00,,OVC021,0.00,0.00,VWS V14.01,2013-02-10 01:30:00,
2013-02-09 20:35:00,16.3,4.5,30.06,NW,313,12.0,16.0,59,0.00,,OVC021,0.00,0.00,VWS V14.01,2013-02-10 01:35:00,
2013-02-09 20:40:00,16.2,4.4,30.07,NW,319,6.0,21.0,59,0.00,,OVC021,0.00,0.00,VWS V14.01,2013-02-10 01:40:00,
2013-02-09 20:45:00,15.8,4.4,30.07,West,276,2.0,12.0,60,0.00,,OVC021,0.00,0.00,VWS V14.01,2013-02-10 01:45:00,
2013-02-09 20:50:00,15.7,4.3,30.07,NW,306,9.0,16.0,60,0.00,,OVC021,0.00,0.00,VWS V14.01,2013-02-10 01:50:00,
2013-02-09 20:55:00,15.7,4.3,30.07,NW,306,12.0,19.0,60,0.00,,OVC021,0.00,0.00,VWS V14.01,2013-02-10 01:55:00,
2013-02-09 21:00:00,15.6,3.8,30.07,WNW,288,5.0,13.0,59,0.00,,OVC021,0.00,0.00,VWS V14.01,2013-02-10 02:00:00,
2013-02-09 21:05:00,15.5,3.7,30.07,NNW,336,12.0,18.0,59,0.00,,OVC021,0.00,0.00,VWS V14.01,2013-02-10 02:05:00,
2013-02-09 21:10:00,15.6,3.8,30.08,NW,319,11.0,19.0,59,0.00,,OVC021,0.00,0.00,VWS V14.01,2013-02-10 02:10:00,
2013-02-09 21:15:00,15.4,3.7,30.08,NW,311,10.0,20.0,59,0.00,,OVC021,0.00,0.00,VWS V14.01,2013-02-10 02:15:00,
2013-02-09 21:20:00,15.3,3.5,30.08,WNW,303,10.0,17.0,59,0.00,,OVC021,0.00,0.00,VWS V14.01,2013-02-10 02:20:00,
2013-02-09 21:25:00,15.3,3.5,30.08,NW,304,13.0,18.0,59,0.00,,OVC021,0.00,0.00,VWS V14.01,2013-02-10 02:25:00,
2013-02-09 21:30:00,15.1,3.4,30.08,North,355,11.0,19.0,59,0.00,,OVC021,0.00,0.00,VWS V14.01,2013-02-10 02:30:00,
2013-02-09 21:35:00,15.0,3.3,30.08,NW,323,4.0,19.0,59,0.00,,OVC021,0.00,0.00,VWS V14.01,2013-02-10 02:35:00,
2013-02-09 21:40:00,14.9,3.2,30.09,WNW,294,8.0,16.0,59,0.00,,OVC021,0.00,0.00,VWS V14.01,2013-02-10 02:40:00,
2013-02-09 21:45:00,14.9,3.2,30.09,WNW,289,11.0,19.0,59,0.00,,OVC021,0.00,0.00,VWS V14.01,2013-02-10 02:45:00,
2013-02-09 21:50:00,14.9,3.2,30.09,NW,308,9.0,19.0,59,0.00,,OVC021,0.00,0.00,VWS V14.01,2013-02-10 02:50:00,
2013-02-09 21:55:00,14.8,3.1,30.09,NNW,329,11.0,19.0,59,0.00,,OVC021,0.00,0.00,VWS V14.01,2013-02-10 02:55:00,
2013-02-09 22:00:00,14.7,3.0,30.09,NNW,335,7.0,13.0,59,0.00,,OVC021,0.00,0.00,VWS V14.01,2013-02-10 03:00:00,
2013-02-09 22:05:00,14.6,2.9,30.09,NW,320,12.0,16.0,59,0.00,,OVC021,0.00,0.00,VWS V14.01,2013-02-10 03:05:00,
2013-02-09 22:10:00,14.6,2.5,30.09,North,360,3.0,17.0,58,0.00,,OVC021,0.00,0.00,VWS V14.01,2013-02-10 03:10:00,
2013-02-09 22:15:00,14.6,2.9,30.10,NNW,333,6.0,21.0,59,0.00,,OVC021,0.00,0.00,VWS V14.01,2013-02-10 03:15:00,
2013-02-09 22:20:00,14.5,2.4,30.10,NNW,333,11.0,14.0,58,0.00,,OVC021,0.00,0.00,VWS V14.01,2013-02-10 03:20:00,
2013-02-09 22:25:00,14.4,2.7,30.10,NW,313,6.0,13.0,59,0.00,,OVC021,0.00,0.00,VWS V14.01,2013-02-10 03:25:00,
2013-02-09 22:30:00,14.3,2.2,30.10,NNW,337,4.0,10.0,58,0.00,,OVC021,0.00,0.00,VWS V14.01,2013-02-10 03:30:00,
2013-02-09 22:35:00,14.3,2.2,30.10,NW,321,11.0,15.0,58,0.00,,OVC021,0.00,0.00,VWS V14.01,2013-02-10 03:35:00,
2013-02-09 22:40:00,14.4,2.3,30.10,NW,315,9.0,15.0,58,0.00,,OVC021,0.00,0.00,VWS V14.01,2013-02-10 03:40:00,
2013-02-09 22:45:00,14.4,2.3,30.11,NW,317,12.0,15.0,58,0.00,,OVC021,0.00,0.00,VWS V14.01,2013-02-10 03:45:00,
2013-02-09 22:50:00,14.3,2.2,30.11,NW,309,12.0,19.0,58,0.00,,OVC021,0.00,0.00,VWS V14.01,2013-02-10 03:50:00,
2013-02-09 22:55:00,14.3,1.9,30.11,NNW,330,11.0,17.0,57,0.00,,OVC021,0.00,0.00,VWS V14.01,2013-02-10 03:55:00,
2013-02-09 23:00:00,14.2,1.8,30.11,NW,318,14.0,15.0,57,0.00,,OVC021,0.00,0.00,VWS V14.01,2013-02-10 04:00:00,
2013-02-09 23:05:00,14.3,1.9,30.12,NNW,348,10.0,16.0,57,0.00,,OVC021,0.00,0.00,VWS V14.01,2013-02-10 04:05:00,
2013-02-09 23:10:00,14.3,1.9,30.11,NW,325,11.0,16.0,57,0.00,,OVC021,0.00,0.00,VWS V14.01,2013-02-10 04:10:00,
2013-02-09 23:15:00,14.2,1.4,30.11,NW,317,12.0,18.0,56,0.00,,OVC021,0.00,0.00,VWS V14.01,2013-02-10 04:15:00,
2013-02-09 23:20:00,14.3,1.5,30.11,NNW,327,13.0,15.0,56,0.00,,OVC021,0.00,0.00,VWS V14.01,2013-02-10 04:20:00,
2013-02-09 23:25:00,14.1,1.3,30.12,North,355,5.0,16.0,56,0.00,,OVC021,0.00,0.00,VWS V14.01,2013-02-10 04:25:00,
2013-02-09 23:30:00,14.1,1.3,30.12,NW,314,9.0,17.0,56,0.00,,OVC021,0.00,0.00,VWS V14.01,2013-02-10 04:30:00,
2013-02-09 23:35:00,14.0,1.2,30.12,NW,309,9.0,16.0,56,0.00,,OVC021,0.00,0.00,VWS V14.01,2013-02-10 04:35:00,
2013-02-09 23:40:00,14.1,1.3,30.12,NW,305,12.0,15.0,56,0.00,,OVC021,0.00,0.00,VWS V14.01,2013-02-10 04:40:00,
2013-02-09 23:45:00,14.1,0.9,30.13,WNW,298,5.0,18.0,55,0.00,,OVC021,0.00,0.00,VWS V14.01,2013-02-10 04:45:00,
2013-02-09 23:50:00,14.2,1.0,30.13,NNW,331,13.0,19.0,55,0.00,,OVC021,0.00,0.00,VWS V14.01,2013-02-10 04:50:00,
2013-02-09 23:55:00,14.3,1.1,30.13,NW,305,12.0,19.0,55,0.00,,OVC021,0.00,0.00,VWS V14.01,2013-02-10 04:55:00,